Content
SEND FEEDBACK

Daily
Averages
Monthly
Summary
United States of America

ATCO, NEW JERSEY


Home > North America > United States > New Jersey
Elevation: 10 feet     Latitude: 39 48N     Longitude: 074 47W

WEATHER
 
SELECT A DAY
Number of Records: 176,497;   Date Range: 11/5/97 - 9/29/14
 
SHARE

PRINT THIS DATA

[ ← Previous Day ]
WEATHER ALMANAC - JANUARY 31, 2013
[ Next Day → ]
[ °C ]   °F
Weather ElementAverageHighLow
Temperature47.9 °F63 °F (2:54 am) (9:54 pm)
Dewpoint32.5 °F59 °F (1:54 am) (7:00 pm)
Humidity57.7 %90 % (1:54 am)24 % (4:54 pm)
Barometer29.44 in29.87 in (11:54 pm)29.10 in (3:14 am)
Wind Speed17.8 mph27.6 mph (12:54 pm)
Wind Gust48.3 mph (3:14 am)
Weather ElementAverage
Visibility8.1 mi
Wind DirectionWSW (244.7 °)

Weather ElementTotal
Precipitation1.28 in
Heating Degree Days33.5 (Base 65)
Averaged from 30 records on January 31, 2013
WEATHER CONDITIONS BREAKOUT
WIND DIRECTION BREAKOUT
WEATHER BY HOUR - JANUARY 31, 2013
[ °C ]   °F
Local TimeTemperatureDewpointHumidityBarometerVisibilityWind DirectionWind SpeedGust SpeedPrecipitationEventsConditions
1:54 AM62.1 °F59.0 °F90 %29.19 in7.0 miSouth (180°)15.0 mph35.7 mph0.05 inRainLight Rain
2:54 AM63.0 °F57.9 °F84 %29.12 in10.0 miSouth (180°)18.4 mph44.9 mph0.01 inOvercast
3:14 AM62.6 °F59.0 °F88 %29.10 in1.8 miSouth (190°)18.4 mph48.3 mph0.06 inRainHeavy Rain
3:24 AM62.6 °F59.0 °F88 %29.11 in2.0 miSouth (190°)16.1 mph41.4 mph0.11 inRainHeavy Rain
3:32 AM62.6 °F59.0 °F88 %29.17 in1.8 miSSW (210°)16.1 mph39.1 mph0.16 inRainHeavy Rain
3:40 AM60.8 °F57.2 °F88 %29.17 in2.0 miSW (220°)17.3 mph39.1 mph0.20 inRainHeavy Rain
3:45 AM60.8 °F57.2 °F88 %29.18 in3.0 miSW (230°)18.4 mph33.4 mph0.22 inRainRain
3:54 AM61.0 °F57.9 °F90 %29.18 in6.0 miSW (230°)13.8 mph26.5 mph0.23 inRainLight Rain
4:08 AM60.8 °F57.2 °F88 %29.18 in4.0 miWSW (240°)13.8 mph23.0 mph0.03 inRainRain
4:54 AM57.9 °F55.0 °F90 %29.15 in6.0 miSSW (200°)8.1 mph0.17 inRainLight Rain
5:54 AM57.9 °F51.1 °F78 %29.16 in10.0 miSW (220°)17.3 mph31.1 mph0.00 inScattered Clouds
6:21 AM53.6 °F44.6 °F72 %29.22 in10.0 miWest (270°)25.3 mph41.4 mph0.01 inOvercast
6:54 AM51.1 °F36.0 °F56 %29.28 in10.0 miWest (270°)18.4 mph32.2 mph0.03 inOvercast
7:54 AM48.0 °F30.0 °F50 %29.34 in10.0 miWest (270°)21.9 mph33.4 mphOvercast
8:54 AM45.0 °F26.1 °F48 %29.43 in10.0 miWest (280°)23.0 mph38.0 mphMostly Cloudy
9:54 AM45.0 °F23.0 °F42 %29.47 in10.0 miWest (270°)19.6 mph36.8 mphPartly Cloudy
10:54 AM46.9 °F23.0 °F39 %29.50 in10.0 miWest (270°)20.7 mph32.2 mphOvercast
11:54 AM55.0 °F23.0 °F29 %29.52 in10.0 miWest (260°)16.1 mph27.6 mphMostly Cloudy
12:54 PM45.0 °F19.0 °F36 %29.52 in10.0 miWest (260°)27.6 mph39.1 mphMostly Cloudy
1:54 PM45.0 °F18.0 °F34 %29.55 in10.0 miWest (260°)18.4 mph27.6 mphScattered Clouds
2:54 PM50.0 °F18.0 °F28 %29.59 in10.0 miWest (260°)24.2 mph39.1 mphPartly Cloudy
3:54 PM48.9 °F14.0 °F25 %29.64 in10.0 miWest (280°)21.9 mph39.1 mphPartly Cloudy
4:54 PM48.0 °F12.0 °F24 %29.68 in10.0 miWest (270°)20.7 mph34.5 mphClear
5:54 PM46.9 °F12.9 °F25 %29.74 in10.0 miWest (270°)15.0 mph25.3 mphMostly Cloudy
6:54 PM46.0 °F15.1 °F29 %29.77 in10.0 miWest (260°)17.3 mph29.9 mphClear
7:54 PM46.0 °F16.0 °F30 %29.79 in10.0 miWest (270°)13.8 mph23.0 mphMostly Cloudy
8:54 PM44.1 °F16.0 °F32 %29.82 in10.0 miWSW (250°)17.3 mph27.6 mphOvercast
9:54 PM0.0 °F0.0 °F29.85 in10.0 miWest (270°)20.7 mph35.7 mphOvercast
10:54 PM0.0 °F0.0 °F29.86 in10.0 miWest (270°)11.5 mph25.3 mphClear
11:54 PM0.0 °F0.0 °F29.87 in10.0 miWSW (240°)9.2 mph17.3 mphClear
Hourly data recorded from KVAY, located miles away from Atco, New Jersey







STORIES FROM OUR PARTNERS